Weather History for Tacoma, WA

Change the Weather History Date:

Monday, March 3, 2014

  Actual Average Record
Temperature  
Mean Temperature 48 °F -  
Max Temperature 54 °F 48 °F 66 °F (1965)
Min Temperature 43 °F 32 °F 13 °F (1989)
Degree Days  
Heating Degree Days 16    
Moisture  
Dew Point 48 °F    
Average Humidity 97    
Maximum Humidity 100    
Minimum Humidity 75    
Precipitation  
Precipitation 0.41 in - - ()
Sea Level Pressure  
Sea Level Pressure 29.76 in    
Wind  
Wind Speed 9 mph (SSW)    
Max Wind Speed 17 mph    
Max Gust Speed 24 mph    
Visibility 9 miles    
Events Rain    
Averages and records for this station are not official NWS values.
T = Trace of Precipitation, MM = Missing Value Source: NWS Daily Summary

Daily Weather History Graph

Daily Weather History Graph

Search for Another Location

Airport:

Trip Planner

Search our weather history database for the weather conditions in past years. The results will help you decide how hot, cold, wet, or windy it might be!

Date:

Astronomy

Mar. 03, 2014 Rise Set
Actual Time 6:45 AM PST 5:58 PM PST
Civil Twilight 6:15 AM PST 6:28 PM PST
Nautical Twilight 5:40 AM PST 7:04 PM PST
Astronomical Twilight 5:04 AM PST 7:39 PM PST
Moon 7:45 AM PST (3/3) 9:22 PM PST (3/3)
Length of Visible Light 12h 13m
Length of Day
11h 12m
Waxing Crescent, 8% of the Moon is Illuminated
Mar 3
Waxing Crescent
Mar 8
First Quarter
Mar 16
Full
Mar 23
Last Quarter
Mar 30
New

Hourly Weather History & Observations

Time (PST) Temp. Windchill Dew Point Humidity Pressure Visibility Wind Dir Wind Speed Gust Speed Precip Events Conditions
12:37 AM 46.4 °F 41.1 °F 46.4 °F 100% 29.77 in 10.0 mi South 11.5 mph - N/A Rain Light Rain
12:51 AM 46.4 °F 40.1 °F 46.4 °F 100% 29.77 in 10.0 mi South 15.0 mph - N/A   Overcast
12:56 AM 46.4 °F 41.1 °F 46.4 °F 100% 29.78 in 9.0 mi South 11.5 mph - N/A   Light Drizzle
12:57 AM 46.4 °F 40.7 °F 46.4 °F 100% 29.77 in 8.0 mi South 12.7 mph - N/A   Light Drizzle
12:58 AM 46.4 °F 40.7 °F 46.4 °F 100% 29.79 in 8.0 mi South 12.7 mph - 0.00 in   Light Drizzle
1:10 AM 46.4 °F 41.5 °F 46.4 °F 100% 29.78 in 5.0 mi South 10.4 mph - N/A   Overcast
1:15 AM 46.4 °F 41.5 °F 46.4 °F 100% 29.78 in 5.0 mi South 10.4 mph - N/A Rain Light Rain
1:50 AM 46.4 °F 41.9 °F 46.4 °F 100% 29.78 in 10.0 mi South 9.2 mph - N/A Rain Light Rain
1:58 AM 46.6 °F - 46.4 °F 99% 29.79 in 10.0 mi SSW 9.2 mph - 0.03 in Rain Light Rain
2:03 AM 46.4 °F 41.5 °F 46.4 °F 100% 29.77 in 10.0 mi SSW 10.4 mph - N/A Rain Light Rain
2:08 AM 46.4 °F 42.9 °F 46.4 °F 100% 29.77 in 10.0 mi SSW 6.9 mph - N/A Rain Light Rain
2:09 AM 46.4 °F 42.9 °F 46.4 °F 100% 29.77 in 10.0 mi South 6.9 mph - N/A   Overcast
2:12 AM 46.4 °F 42.9 °F 46.4 °F 100% 29.77 in 10.0 mi South 6.9 mph - N/A Rain Light Rain
2:22 AM 46.4 °F 44.3 °F 46.4 °F 100% 29.77 in 10.0 mi SSW 4.6 mph - N/A   Overcast
2:27 AM 46.4 °F 44.3 °F 46.4 °F 100% 29.77 in 10.0 mi South 4.6 mph - N/A   Mostly Cloudy
2:58 AM 43.3 °F 39.9 °F 43.3 °F 100% 29.78 in 10.0 mi SSE 5.8 mph - 0.00 in   Mostly Cloudy
3:08 AM 44.6 °F 40.7 °F 44.6 °F 100% 29.76 in 10.0 mi South 6.9 mph - N/A   Overcast
3:18 AM 44.6 °F 40.7 °F 44.6 °F 100% 29.75 in 10.0 mi South 6.9 mph - N/A   Overcast
3:23 AM 44.6 °F 40.7 °F 44.6 °F 100% 29.75 in 10.0 mi South 6.9 mph - N/A   Overcast
3:38 AM 46.4 °F 44.3 °F 46.4 °F 100% 29.75 in 9.0 mi SSW 4.6 mph - N/A   Overcast
3:41 AM 46.4 °F 45.2 °F 46.4 °F 100% 29.75 in 8.0 mi SSW 3.5 mph - N/A   Light Drizzle
3:51 AM 46.4 °F 45.2 °F 46.4 °F 100% 29.74 in 8.0 mi SSW 3.5 mph - N/A   Light Drizzle
3:56 AM 46.4 °F - 46.4 °F 100% 29.74 in 7.0 mi South 2.3 mph - N/A Rain Light Rain
3:58 AM 46.0 °F - 46.0 °F 100% 29.76 in 6.0 mi South 2.3 mph - 0.01 in Rain Light Rain
4:13 AM 46.4 °F 44.3 °F 46.4 °F 100% 29.73 in 10.0 mi South 4.6 mph - N/A Rain Light Rain
4:14 AM 46.4 °F 44.3 °F 46.4 °F 100% 29.73 in 10.0 mi South 4.6 mph - N/A   Overcast
4:34 AM 46.4 °F - 46.4 °F 100% 29.73 in 10.0 mi SSW 2.3 mph - N/A   Overcast
4:58 AM 46.2 °F 45.0 °F 46.2 °F 100% 29.74 in 10.0 mi South 3.5 mph - 0.00 in   Overcast
5:52 AM 46.4 °F 43.5 °F 46.4 °F 100% 29.70 in 10.0 mi SSE 5.8 mph - N/A Rain Light Rain
5:58 AM 46.4 °F 43.5 °F 46.4 °F 100% 29.72 in 10.0 mi South 5.8 mph - 0.00 in Rain Light Rain
6:58 AM 46.6 °F - 46.6 °F 100% 29.71 in 7.0 mi SSE 6.9 mph - 0.09 in Rain Light Rain
7:24 AM 46.4 °F 41.9 °F 46.4 °F 100% 29.69 in 9.0 mi South 9.2 mph - N/A   Overcast
7:27 AM 46.4 °F 42.4 °F 46.4 °F 100% 29.69 in 9.0 mi South 8.1 mph - N/A Rain Light Rain
7:58 AM 46.2 °F 42.7 °F 45.9 °F 99% 29.70 in 8.0 mi SE 6.9 mph - 0.09 in Rain Light Rain
8:38 AM 46.4 °F - 46.4 °F 100% 29.68 in 9.0 mi Variable 1.2 mph - N/A Rain Light Rain
8:58 AM 46.2 °F - 46.0 °F 99% 29.69 in 10.0 mi Variable 1.2 mph - 0.02 in Rain Light Rain
9:10 AM 46.4 °F - 46.4 °F 100% 29.68 in 10.0 mi Calm Calm - N/A   Overcast
9:12 AM 46.4 °F - 46.4 °F 100% 29.68 in 10.0 mi Calm Calm - N/A   Light Drizzle
9:17 AM 46.4 °F - 46.4 °F 100% 29.67 in 6.0 mi Variable 2.3 mph - N/A Rain Light Rain
9:22 AM 46.4 °F 43.5 °F 46.4 °F 100% 29.67 in 4.0 mi SE 5.8 mph - N/A Rain Light Rain
9:36 AM 46.4 °F 43.5 °F 46.4 °F 100% 29.67 in 5.0 mi South 5.8 mph - N/A Rain Light Rain
9:41 AM 46.4 °F 41.5 °F 46.4 °F 100% 29.67 in 4.0 mi South 10.4 mph - N/A Rain Light Rain
9:46 AM 46.4 °F 41.9 °F 46.4 °F 100% 29.67 in 4.0 mi South 9.2 mph - N/A Rain Light Rain
9:56 AM 46.4 °F 41.5 °F 46.4 °F 100% 29.68 in 6.0 mi South 10.4 mph - N/A Rain Light Rain
9:58 AM 47.1 °F - 46.8 °F 99% 29.70 in 6.0 mi South 10.4 mph - 0.05 in Rain Light Rain
10:03 AM 48.2 °F - 46.4 °F 93% 29.68 in 8.0 mi South 10.4 mph - N/A Rain Light Rain
10:13 AM 48.2 °F - 48.2 °F 100% 29.68 in 9.0 mi South 10.4 mph - N/A Rain Light Rain
10:18 AM 48.2 °F - 48.2 °F 100% 29.68 in 9.0 mi South 11.5 mph - N/A Rain Light Rain
10:36 AM 50.0 °F - 50.0 °F 100% 29.69 in 10.0 mi South 9.2 mph - N/A   Overcast
10:41 AM 50.0 °F - 50.0 °F 100% 29.69 in 10.0 mi South 9.2 mph - N/A   Overcast
10:48 AM 50.0 °F - 50.0 °F 100% 29.69 in 10.0 mi South 9.2 mph - N/A Rain Light Rain
10:53 AM 50.0 °F - 50.0 °F 100% 29.68 in 9.0 mi South 10.4 mph - N/A Rain Light Rain
10:58 AM 50.5 °F - 50.5 °F 100% 29.71 in 9.0 mi South 8.1 mph - 0.02 in Rain Light Rain
11:02 AM 50.0 °F - 50.0 °F 100% 29.69 in 8.0 mi South 8.1 mph - N/A   Light Drizzle
11:12 AM 51.8 °F - 51.8 °F 100% 29.69 in 2.5 mi SW 5.8 mph - N/A Rain Light Rain
11:17 AM 50.0 °F - 50.0 °F 100% 29.69 in 1.8 mi WSW 10.4 mph - N/A Rain Rain
11:22 AM 50.0 °F - 50.0 °F 100% 29.69 in 2.0 mi SW 9.2 mph - N/A Rain Light Rain
11:27 AM 51.8 °F - 51.8 °F 100% 29.69 in 4.0 mi SSW 10.4 mph - N/A Rain Light Rain
11:32 AM 51.8 °F - 51.8 °F 100% 29.69 in 7.0 mi SW 15.0 mph 17.3 mph N/A Rain Light Rain
11:37 AM 51.8 °F - 51.8 °F 100% 29.69 in 10.0 mi SW 9.2 mph 17.3 mph N/A Rain Light Rain
11:38 AM 51.8 °F - 51.8 °F 100% 29.69 in 10.0 mi SSW 9.2 mph 17.3 mph N/A   Overcast
11:52 AM 51.8 °F - 51.8 °F 100% 29.70 in 10.0 mi SSW 8.1 mph - N/A   Light Drizzle
11:58 AM 51.6 °F - 51.3 °F 99% 29.70 in 10.0 mi SW 9.2 mph - 0.04 in Rain Light Rain
12:19 PM 51.8 °F - 51.8 °F 100% 29.70 in 10.0 mi SW 9.2 mph - N/A   Overcast
12:34 PM 53.6 °F - 53.6 °F 100% 29.70 in 10.0 mi SW 11.5 mph 18.4 mph N/A   Overcast
12:35 PM 53.6 °F - 51.8 °F 94% 29.70 in 9.0 mi WSW 11.5 mph 18.4 mph N/A Rain Light Rain
12:38 PM 51.8 °F - 51.8 °F 100% 29.70 in 5.0 mi WSW 16.1 mph 24.2 mph N/A Rain Light Rain
12:43 PM 51.8 °F - 51.8 °F 100% 29.71 in 3.0 mi WSW 13.8 mph 24.2 mph N/A Rain Light Rain
12:58 PM 50.9 °F - 50.7 °F 99% 29.73 in 10.0 mi WSW 10.4 mph - 0.03 in Rain Light Rain
1:08 PM 51.8 °F - 50.0 °F 94% 29.72 in 10.0 mi West 12.7 mph - N/A Rain Light Rain
1:13 PM 51.8 °F - 51.8 °F 100% 29.72 in 10.0 mi West 11.5 mph - N/A   Light Drizzle
1:18 PM 51.8 °F - 51.8 °F 100% 29.72 in 10.0 mi WSW 11.5 mph 19.6 mph N/A   Light Drizzle
1:21 PM 51.8 °F - 51.8 °F 100% 29.72 in 10.0 mi WSW 9.2 mph 19.6 mph N/A   Overcast
1:26 PM 51.8 °F - 51.8 °F 100% 29.72 in 10.0 mi West 12.7 mph 24.2 mph N/A   Overcast
1:31 PM 51.8 °F - 51.8 °F 100% 29.72 in 10.0 mi WSW 10.4 mph 24.2 mph N/A   Overcast
1:58 PM 52.3 °F - 49.8 °F 91% 29.75 in 10.0 mi WSW 12.7 mph 20.7 mph 0.00 in   Overcast
2:58 PM 54.1 °F - 48.4 °F 81% 29.77 in 10.0 mi SW 10.4 mph - 0.01 in   Mostly Cloudy
3:58 PM 54.9 °F - 47.1 °F 75% 29.78 in 10.0 mi WSW 17.3 mph - N/A   Mostly Cloudy
4:58 PM 53.6 °F - 48.0 °F 81% 29.82 in 10.0 mi SSW 10.4 mph - N/A   Mostly Cloudy
5:38 PM 51.8 °F - 46.4 °F 82% 29.82 in 10.0 mi SSW 12.7 mph - N/A   Mostly Cloudy
5:58 PM 51.6 °F - 46.4 °F 82% 29.85 in 10.0 mi SSW 10.4 mph - N/A   Overcast
6:23 PM 50.0 °F - 46.4 °F 87% 29.84 in 10.0 mi South 11.5 mph - N/A   Overcast
6:58 PM 50.4 °F - 46.4 °F 86% 29.88 in 10.0 mi SSW 11.5 mph - N/A   Overcast
7:18 PM 50.0 °F - 46.4 °F 87% 29.86 in 10.0 mi South 9.2 mph - N/A   Overcast
7:28 PM 50.0 °F - 46.4 °F 87% 29.87 in 10.0 mi South 5.8 mph - N/A   Overcast
7:58 PM 48.6 °F - 47.3 °F 95% 29.90 in 10.0 mi SSW 8.1 mph - N/A   Overcast
8:58 PM 49.3 °F - 46.8 °F 91% 29.90 in 10.0 mi South 10.4 mph - N/A   Overcast
8:59 PM 50.0 °F - 46.4 °F 87% 29.88 in 10.0 mi South 11.5 mph - N/A Rain Light Rain
9:08 PM 50.0 °F - 46.4 °F 87% 29.89 in 10.0 mi SSW 10.4 mph 20.7 mph N/A   Overcast
9:13 PM 50.0 °F - 46.4 °F 87% 29.89 in 10.0 mi SSW 8.1 mph - N/A Rain Light Rain
9:23 PM 50.0 °F - 46.4 °F 87% 29.89 in 10.0 mi SSW 9.2 mph - N/A Rain Light Rain
9:37 PM 48.2 °F - 48.2 °F 100% 29.90 in 8.0 mi SSW 11.5 mph - N/A Rain Light Rain
9:58 PM 48.6 °F - 48.4 °F 99% 29.92 in 9.0 mi SSW 12.7 mph - 0.01 in Rain Light Rain
10:08 PM 48.2 °F - 48.2 °F 100% 29.90 in 10.0 mi SSW 11.5 mph - N/A Rain Light Rain
10:18 PM 48.2 °F - 48.2 °F 100% 29.90 in 10.0 mi SSW 12.7 mph - N/A   Overcast
10:58 PM 47.8 °F - 47.7 °F 99% 29.93 in 10.0 mi SSW 10.4 mph - 0.01 in   Mostly Cloudy
11:18 PM 48.2 °F - 48.2 °F 100% 29.91 in 10.0 mi SSW 11.5 mph - N/A Rain Light Rain
11:58 PM 48.0 °F - 47.8 °F 99% 29.94 in 10.0 mi South 13.8 mph - 0.00 in Rain Light Rain
11:59 PM 48.2 °F - 48.2 °F 100% 29.92 in 10.0 mi SSW 13.8 mph - N/A   Overcast